Weather History for Moncks Corner, SC

Change the Weather History Date:

Sunday, January 12, 2014

  Actual Average (KCHS) Record (KCHS)
Temperature  
Mean Temperature 50 °F 48 °F  
Max Temperature 60 °F 59 °F 81 °F (2013)
Min Temperature 39 °F 37 °F 15 °F (1981)
Degree Days  
Heating Degree Days 16 17  
Month to date heating degree days 204  
Since 1 July heating degree days 942  
Cooling Degree Days 0 0  
Month to date cooling degree days 0  
Year to date cooling degree days 0  
Moisture  
Dew Point 43 °F    
Average Humidity 74    
Maximum Humidity 100    
Minimum Humidity 42    
Precipitation  
Precipitation 0.00 in 0.12 in 3.90 in (1993)
Month to date precipitation 1.40  
Year to date precipitation 1.40  
Sea Level Pressure  
Sea Level Pressure 30.08 in    
Wind  
Wind Speed 3 mph (NW)    
Max Wind Speed 8 mph    
Max Gust Speed 22 mph    
Visibility 9 miles    
Events Rain    
T = Trace of Precipitation, MM = Missing Value Source: NWS Daily Summary

Daily Weather History Graph

Daily Weather History Graph

Search for Another Location

Airport:

Trip Planner

Search our weather history database for the weather conditions in past years. The results will help you decide how hot, cold, wet, or windy it might be!

Date:

Astronomy

Jan. 12, 2014 Rise Set
Actual Time 7:24 AM EST 5:33 PM EST
Civil Twilight 6:57 AM EST 6:00 PM EST
Nautical Twilight 6:26 AM EST 6:30 PM EST
Astronomical Twilight 5:56 AM EST 7:00 PM EST
Moon 2:58 PM EST (1/12) 4:22 AM EST (1/12)
Length of Visible Light 11h 03m
Length of Day
10h 09m
Waxing Gibbous, 89% of the Moon is Illuminated
Jan 12
Waxing Gibbous
Jan 15
Full
Jan 24
Last Quarter
Jan 30
New
Feb 6
First Quarter

Hourly Weather History & Observations

Time (EST) Temp. Dew Point Humidity Pressure Visibility Wind Dir Wind Speed Gust Speed Precip Events Conditions
12:15 AM 60.8 °F 59.0 °F 94% 29.81 in 10.0 mi West 6.9 mph 21.9 mph N/A Rain Light Rain
12:35 AM 60.8 °F 57.2 °F 88% 29.83 in 10.0 mi West 8.1 mph 16.1 mph N/A   Overcast
12:55 AM 60.8 °F 53.6 °F 77% 29.82 in 10.0 mi WNW 8.1 mph - N/A   Overcast
1:15 AM 60.8 °F 51.8 °F 72% 29.83 in 10.0 mi West 5.8 mph - N/A   Overcast
1:35 AM 59.0 °F 50.0 °F 72% 29.84 in 7.0 mi Calm Calm - N/A   Overcast
1:55 AM 57.2 °F 48.2 °F 72% 29.85 in 10.0 mi WNW 5.8 mph - N/A   Scattered Clouds
2:15 AM 57.2 °F 48.2 °F 72% 29.86 in 10.0 mi WSW 4.6 mph - N/A   Clear
2:35 AM 55.4 °F 48.2 °F 77% 29.87 in 10.0 mi West 3.5 mph - N/A   Clear
2:55 AM 55.4 °F 46.4 °F 72% 29.89 in 7.0 mi West 4.6 mph - N/A   Clear
3:15 AM 55.4 °F 46.4 °F 72% 29.90 in 10.0 mi West 4.6 mph - N/A   Clear
3:35 AM 53.6 °F 46.4 °F 77% 29.91 in 10.0 mi West 4.6 mph - N/A   Clear
3:55 AM 53.6 °F 44.6 °F 72% 29.92 in 10.0 mi West 4.6 mph - N/A   Clear
4:15 AM 53.6 °F 44.6 °F 72% 29.92 in 10.0 mi West 3.5 mph - N/A   Clear
4:35 AM 51.8 °F 44.6 °F 76% 29.94 in 10.0 mi West 3.5 mph - N/A   Clear
4:55 AM 51.8 °F 44.6 °F 76% 29.96 in 7.0 mi Calm Calm - N/A   Clear
5:15 AM 50.0 °F 44.6 °F 82% 29.97 in 10.0 mi Calm Calm - N/A   Clear
5:35 AM 50.0 °F 44.6 °F 82% 29.98 in 10.0 mi Calm Calm - N/A   Clear
5:55 AM 50.0 °F 42.8 °F 76% 29.99 in 7.0 mi Calm Calm - N/A   Clear
6:15 AM 48.2 °F 42.8 °F 82% 29.99 in 10.0 mi Calm Calm - N/A   Clear
6:35 AM 48.2 °F 42.8 °F 82% 30.01 in 10.0 mi Calm Calm - N/A   Clear
6:55 AM 48.2 °F 42.8 °F 82% 30.03 in 10.0 mi Calm Calm - N/A   Clear
7:15 AM 46.4 °F 42.8 °F 87% 30.04 in 10.0 mi Calm Calm - N/A   Clear
7:35 AM 44.6 °F 42.8 °F 93% 30.04 in 7.0 mi Calm Calm - N/A   Clear
7:55 AM 46.4 °F 42.8 °F 87% 30.05 in 7.0 mi Calm Calm - N/A   Clear
8:15 AM 48.2 °F 42.8 °F 82% 30.06 in 10.0 mi Calm Calm - N/A   Clear
8:35 AM 48.2 °F 42.8 °F 82% 30.09 in 7.0 mi West 3.5 mph - N/A   Clear
8:55 AM 50.0 °F 44.6 °F 82% 30.10 in 7.0 mi Calm Calm - N/A   Clear
9:15 AM 51.8 °F 44.6 °F 76% 30.13 in 10.0 mi WNW 5.8 mph - N/A   Clear
9:35 AM 51.8 °F 44.6 °F 76% 30.14 in 7.0 mi WNW 4.6 mph - N/A   Clear
9:55 AM 53.6 °F 44.6 °F 72% 30.15 in 10.0 mi Calm Calm - N/A   Clear
10:15 AM 55.4 °F 42.8 °F 63% 30.16 in 10.0 mi WNW 4.6 mph - N/A   Clear
10:35 AM 55.4 °F 42.8 °F 63% 30.17 in 10.0 mi NW 4.6 mph - N/A   Clear
10:55 AM 57.2 °F 42.8 °F 59% 30.17 in 7.0 mi NNW 3.5 mph - N/A   Clear
11:15 AM 57.2 °F 42.8 °F 59% 30.17 in 7.0 mi NNW 4.6 mph - N/A   Clear
11:35 AM 57.2 °F 42.8 °F 59% 30.16 in 10.0 mi North 6.9 mph - N/A   Clear
11:55 AM 57.2 °F 42.8 °F 59% 30.14 in 10.0 mi North 6.9 mph - N/A   Clear
12:15 PM 59.0 °F 42.8 °F 55% 30.13 in 7.0 mi North 5.8 mph - N/A   Clear
12:35 PM 59.0 °F 42.8 °F 55% 30.13 in 7.0 mi Calm Calm - N/A   Clear
12:55 PM 59.0 °F 41.0 °F 51% 30.12 in 10.0 mi NNW 4.6 mph - N/A   Clear
1:15 PM 60.8 °F 39.2 °F 45% 30.12 in 10.0 mi NNW 4.6 mph - N/A   Clear
1:35 PM 60.8 °F 37.4 °F 42% 30.12 in 10.0 mi North 5.8 mph - N/A   Clear
1:55 PM 60.8 °F 39.2 °F 45% 30.12 in 7.0 mi North 6.9 mph - N/A   Clear
2:15 PM 60.8 °F 39.2 °F 45% 30.12 in 10.0 mi North 3.5 mph - N/A   Clear
2:35 PM 60.8 °F 39.2 °F 45% 30.12 in 10.0 mi Calm Calm - N/A   Clear
2:55 PM 60.8 °F 39.2 °F 45% 30.12 in 10.0 mi North 4.6 mph - N/A   Clear
3:15 PM 60.8 °F 39.2 °F 45% 30.13 in 10.0 mi NNE 4.6 mph - N/A   Clear
3:35 PM 60.8 °F 39.2 °F 45% 30.13 in 10.0 mi North 4.6 mph - N/A   Clear
3:55 PM 60.8 °F 39.2 °F 45% 30.13 in 7.0 mi NNE 3.5 mph - N/A   Clear
4:15 PM 60.8 °F 39.2 °F 45% 30.14 in 10.0 mi Calm Calm - N/A   Clear
4:35 PM 60.8 °F 39.2 °F 45% 30.15 in 10.0 mi Calm Calm - N/A   Clear
4:55 PM 59.0 °F 37.4 °F 45% 30.16 in 10.0 mi Calm Calm - N/A   Clear
5:15 PM 59.0 °F 37.4 °F 45% 30.16 in 5.0 mi Calm Calm - N/A   Haze
5:35 PM 55.4 °F 42.8 °F 63% 30.16 in 10.0 mi Calm Calm - N/A   Clear
5:55 PM 51.8 °F 44.6 °F 76% 30.16 in 10.0 mi Calm Calm - N/A   Clear
6:15 PM 50.0 °F 44.6 °F 82% 30.17 in 10.0 mi Calm Calm - N/A   Clear
6:35 PM 48.2 °F 42.8 °F 82% 30.18 in 10.0 mi Calm Calm - N/A   Clear
6:55 PM 46.4 °F 42.8 °F 87% 30.18 in 10.0 mi Calm Calm - N/A   Clear
7:15 PM 46.4 °F 44.6 °F 93% 30.19 in 10.0 mi Calm Calm - N/A   Clear
7:35 PM 44.6 °F 42.8 °F 93% 30.20 in 10.0 mi Calm Calm - N/A   Clear
7:55 PM 44.6 °F 42.8 °F 93% 30.20 in 10.0 mi Calm Calm - N/A   Clear
8:15 PM 42.8 °F 42.8 °F 100% 30.21 in 7.0 mi Calm Calm - N/A   Clear
8:35 PM 42.8 °F 41.0 °F 93% 30.21 in 10.0 mi Calm Calm - N/A   Clear
8:55 PM 41.0 °F 41.0 °F 100% 30.21 in 7.0 mi Calm Calm - N/A   Clear
9:15 PM 41.0 °F 41.0 °F 100% 30.22 in 10.0 mi Calm Calm - N/A   Clear
9:35 PM 41.0 °F 41.0 °F 100% 30.21 in 10.0 mi Calm Calm - N/A   Clear
9:55 PM 41.0 °F 41.0 °F 100% 30.22 in 10.0 mi Calm Calm - N/A   Clear
10:15 PM 41.0 °F 41.0 °F 100% 30.22 in 7.0 mi Calm Calm - N/A   Clear
10:35 PM 41.0 °F 41.0 °F 100% 30.22 in 7.0 mi Calm Calm - N/A   Clear
10:55 PM 39.2 °F 39.2 °F 100% 30.21 in 7.0 mi Calm Calm - N/A   Clear
11:15 PM 39.2 °F 39.2 °F 100% 30.22 in 7.0 mi Calm Calm - N/A   Clear
11:35 PM 39.2 °F 39.2 °F 100% 30.21 in 7.0 mi Calm Calm - N/A   Clear
11:55 PM 39.2 °F 39.2 °F 100% 30.22 in 7.0 mi Calm Calm - N/A   Clear